Regional Weather Roundup
Issued by NWS

Home | Current Version | Previous Version | Graphics & Text | Print | Product List | Glossary On
Versions: 1 2 3 4 5 6 7 8 9 10 11 12 13 14 15 16 17 18 19 20 21 22 23 24 25 26 27
000
ASUS45 KPSR 202010
RWRAZ

ARIZONA HOURLY REGIONAL WEATHER ROUNDUP
NATIONAL WEATHER SERVICE PHOENIX AZ
100 PM MST FRI OCT 20 2017

NOTE: FAIR INDICATES FEW OR NO CLOUDS BELOW 12,000 FEET WITH NO
SIGNIFICANT WEATHER AND/OR OBSTRUCTIONS TO VISIBILITY.

AZZ001>003-036-202100-
NORTHWEST ARIZONA

CITY           SKY/WX    TMP DP  RH WIND       PRES   REMARKS
BULLHEAD CITY  SUNNY     86  37  17 SW22G33   29.66F
KINGMAN        SUNNY     76  37  24 SW30G41   29.79F
$$

AZZ004>008-015-016-018-202100-
NORTH CENTRAL ARIZONA

CITY           SKY/WX    TMP DP  RH WIND       PRES   REMARKS
GRAND CANYON   SUNNY     67  27  22 SW30G43   29.87F
WILLIAMS       SUNNY     66  25  20 SW23G39   29.92F
PRESCOTT       SUNNY     71  32  23 S16G26    29.90F
FLAGSTAFF      SUNNY     63  28  26 SW23G32   29.95F
PAYSON           N/A     72  32  23 SW18G26   29.96F
PAGE           PTSUNNY   78  29  16 VRB6      29.66F
$$

AZZ009>014-017-202100-
NORTHEAST ARIZONA

CITY           SKY/WX    TMP DP  RH WIND       PRES   REMARKS
WINSLOW        SUNNY     78  31  17 SW24G38   29.85F
SAINT JOHNS    SUNNY     74  29  19 W29G39    29.92F
WINDOW ROCK    SUNNY     71  27  19 SW28G38   29.94F
SHOW LOW       SUNNY     68  30  24 SW30G40   29.99F
$$

AZZ540-542>544-546-548-202100-
GREATER PHOENIX AREA

CITY           SKY/WX    TMP DP  RH WIND       PRES   REMARKS
PHOENIX        MOSUNNY   86  43  22 VRB5      29.77F
BUCKEYE        SUNNY     82  82 100 SW15      29.77F
GLENDALE       MOSUNNY   84  46  26 S10G22    29.79F
LUKE AFB       SUNNY     84  48  28 S14       29.74F
DEER VALLEY    SUNNY     83  43  24 S16       29.77F
SCOTTSDALE     SUNNY     84  39  20 VRB7      29.80F
MESA-FALCON    MOSUNNY   86  43  22 S12G17    29.80F
MESA-GATEWAY   MOSUNNY   84  41  21 W13G18    29.80F
CHANDLER       MOSUNNY   86  43  22 SW10      29.79F
$$

AZZ539-553-202100-
SOUTHWEST MARICOPA COUNTY AND PINAL COUNTY

CITY           SKY/WX    TMP DP  RH WIND       PRES   REMARKS
CASA GRANDE    NOT AVBL
GILA BEND      PTSUNNY   84  46  26 SW13      29.77F
$$

AZZ503-504-507>509-202100-
SOUTHEAST ARIZONA

CITY           SKY/WX    TMP DP  RH WIND       PRES   REMARKS
TUCSON         SUNNY     90  37  15 W13G20    29.86F
DAVIS-MONTHAN  SUNNY     89  38  16 NW8       29.84F
RYAN FIELD     SUNNY     90  36  14 S20G29    29.85F
NOGALES        SUNNY     85  37  18 SW21G28   29.93F
SIERRA VISTA   SUNNY     82  32  16 SW22G28   29.97F
DOUGLAS        SUNNY     83  34  17 SW22G28   29.94F
SAFFORD        SUNNY     85  35  16 NW5       29.84F
$$

AZZ532-202100-
SOUTHWEST ARIZONA

CITY           SKY/WX    TMP DP  RH WIND       PRES   REMARKS
YUMA           MOSUNNY   84  51  31 W17       29.77F
$$

CAZ041-043-047-048-061-525>527-560>570-202100-
SOUTHERN CALIFORNIA

CITY           SKY/WX    TMP DP  RH WIND       PRES   REMARKS
DOWNTOWN L.A.  SUNNY     74  57  55 CALM      29.90F
L.A. AIRPORT   MOSUNNY   70  60  70 W20       29.92F
SAN DIEGO      CLOUDY    69  59  70 W13       30.00F
BURBANK        PTSUNNY   71  54  54 SE9       29.90F
ONTARIO        PTSUNNY   73  52  47 SW10      29.91F
RIVERSIDE      MOSUNNY   72  51  47 SW13      29.91F
PALM SPRINGS   MOSUNNY   84  44  24 MISG      29.77F
EL CENTRO NAS  MOSUNNY   86  45  23 W33G39    29.79F
IMPERIAL       SUNNY     84  47  27 W24G36    29.77F
BLYTHE         SUNNY     84  50  30 SW12      29.73F
NEEDLES        SUNNY     89  42  19 W15G29    29.71F
$$

NVZ020-UTZ003-202100-
SOUTHERN NEVADA-UTAH

CITY           SKY/WX    TMP DP  RH WIND       PRES   REMARKS
LAS VEGAS      MOSUNNY   76  40  27 SW20G31   29.69R
SALT LAKE CITY CLOUDY    53  29  39 NW26G37   29.82R
$$

NMZ009-TXZ055-202100-
NEW MEXICO-WEST TEXAS

CITY           SKY/WX    TMP DP  RH WIND       PRES   REMARKS
ALBUQUERQUE    MOSUNNY   71  43  36 S14G26    29.92F
EL PASO        MOSUNNY   84  40  21 SW16      29.91F
$$


........................KEY........................
SKY/WX - SKY CONDITION/WEATHER
TMP    - TEMPERATURE IN FAHRENHEIT
DP     - DEW POINT IN FAHRENHEIT
RH     - RELATIVE HUMIDITY IN PERCENT
WIND   - DIRECTION AND SPEED IN MILES PER HOUR (MPH)
VRB    - VARIABLE WIND DIRECTION
PRES   - MEAN SEA LEVEL PRESSURE IN INCHES OF MERCURY
         F - FALLING PRESSURE   R - RISING PRESSURE
         S - STEADY PRESSURE
VSB    - VISIBILITY IN MILES
HX     - HEAT INDEX IN FAHRENHEIT
WCI    - WIND CHILL INDEX IN FAHRENHEIT
TC     - TEMPERATURE IN CELSIUS WHICH IS ALSO KNOWN AS
         TEMPERATURE IN CENTIGRADE
AFB    - AIR FORCE BASE
         LUKE AFB IS LUKE AIR FORCE BASE
         DAVIS-MONTHAN IS DAVIS-MONTHAN AIR FORCE BASE
NAS    - NAVAL AIR STATION
         EL CENTRO NAS IS EL CENTRO NAVAL AIR STATION
N/A    - NOT AVAILABLE





USA.gov is the U.S. government's official web portal to all federal, state and local government web resources and services.